Location: Amsterdam
(30.7274°N, 84.4357°W)
Time: 03:08:43
(UTC+00:00)

Courier 1B Rocket - Pass Details

Date: 12 February 2026
Orbit: 920 x 1201 km, 28.2° (Epoch: 13 March)

Event Time Altitude Azimuth Distance (km) Brightness Sun altitude
Rises 06:11:48 0° 272° (W) 3,801 - -72.3°
Reaches altitude 10° 06:14:27 10° 270° (W) 2,888 - -72.2°
Maximum altitude 06:21:32 68° 189° (S) 1,200 - -71.6°
Drops below altitude 10° 06:29:06 10° 108° (ESE) 3,075 - -70.9°
Sets 06:32:00 0° 106° (ESE) 4,061 - -70.6°
